Air Resources Laboratory banner image
Air Resources Laboratory web site National Oceanic and Atmospheric Administration (NOAA)

fl zone


SCZ050-WAZ558-NCZ071-TXZ119-213-PAZ071-DCZ001-FLZ074-172-MI076-
NYZ176-178-MAZ016-IL014-TNZ027-NJZ106-GAZ044-MD014-151300-

...Gateway Observations for Charleston International...

CITY           SKY/WX    TMP DP  RH WIND       PRES   REMARKS
Chas Airport   CLOUDY    43  40  89 CALM      30.01R
6HR MIN TEMP:  42; 6HR MAX TEMP:  50;

Seattle        CLOUDY    40  36  86 SE6       30.20S WCI  36
6HR MIN TEMP:  37; 6HR MAX TEMP:  41;

Charlotte      CLOUDY    34  24  67 N6        29.98S WCI  29
6HR MIN TEMP:  34; 6HR MAX TEMP:  42;

Dallas DFW     PTCLDY    40  28  62 NW12      30.26R WCI  33
6HR MIN TEMP:  36; 6HR MAX TEMP:  44;

Dallas Love    PTCLDY    38  28  67 NW6       30.27R WCI  33
6HR MIN TEMP:  36; 6HR MAX TEMP:  43;

Philladelphia  CLOUDY    25  10  53 S3        30.14R
6HR MIN TEMP:  24; 6HR MAX TEMP:  25;

Wash National  CLOUDY    30  14  51 E6        30.12F WCI  24
6HR MIN TEMP:  30; 6HR MAX TEMP:  31;

Baltimore      CLOUDY    26  13  57 SE5       30.11S WCI  20
6HR MIN TEMP:  23; 6HR MAX TEMP:  27;

Miami          PTCLDY    56  53  90 CALM      30.10R
6HR MIN TEMP:  53; 6HR MAX TEMP:  58;

Detroit        CLOUDY    21   9  59 SW9       29.94F WCI  11
6HR MIN TEMP:  18; 6HR MAX TEMP:  21; 6HR PCP: TRACE;

Newark         CLOUDY    21   7  54 SW6       30.12R WCI  13
6HR MIN TEMP:  18; 6HR MAX TEMP:  22;

Laguardia      MOCLDY    23   9  55 CALM      30.11R
6HR MIN TEMP:  23; 6HR MAX TEMP:  24;

J F K          CLOUDY    21  11  65 N3        30.13R
6HR MIN TEMP:  20; 6HR MAX TEMP:  22;

Boston Logan   CLOUDY    19   7  59 W7        30.08R WCI  10
6HR MIN TEMP:  17; 6HR MAX TEMP:  19;

Ft. Lauderdale PTCLDY    58  53  84 CALM      30.08S
6HR MIN TEMP:  53; 6HR MAX TEMP:  58;

Chicago O'Hare FLURRIES  26  18  71 W16G22    29.91S WCI  14
6HR MIN TEMP:  21; 6HR MAX TEMP:  26; 6HR PCP: TRACE;

Chicago Midway FLURRIES  26  18  71 W12       29.92F WCI  16
6HR MIN TEMP:  21; 6HR MAX TEMP:  26; 6HR PCP: TRACE;

Houston Bush   CLOUDY    49  33  54 N12       30.19R
6HR MIN TEMP:  49; 6HR MAX TEMP:  54;

Houston Hobby  CLOUDY    50  34  54 N13       30.18R
6HR MIN TEMP:  50; 6HR MAX TEMP:  56;

Nashville      CLOUDY    33  20  58 NW9       30.11R WCI  25
6HR MIN TEMP:  33; 6HR MAX TEMP:  34;

Atlanta        CLOUDY    37  30  75 NW10      30.00S WCI  30
6HR MIN TEMP:  36; 6HR MAX TEMP:  46;